Flag for Germany Weather past 2 weeks in Radebeul, Saxony, Germany

Now
61 °F

Light rain. Overcast.


Feels Like: 61 °F
Forecast: 54 / 65 °F
Wind: 2 mph from South

Location: Dresden-Klotzsche

Current Time: Aug 31, 2014 at 3:03:28 AM

Latest Report: Aug 31, 2014 at 2:00 AM


Visibility: 25 mi

Pressure: 30.01 "Hg

Humidity: 80%

Dew point: 54 °F

Location of RadebeulLocation

Historic Weather in Radebeul — Graph

°F

Radebeul temperature yesterday

Maximum temperature yesterday: 72 °F (at 3:00 PM)
Minimum temperature yesterday: 56 °F (at 4:00 AM)
Average temperature yesterday: 63 °F

Past Weeks' High & Low Weather Summary

 TemperatureHumidityPressure
High73 °F (Aug 29, 1:00 PM)98% (Aug 27, 7:00 AM)30.11 "Hg (Aug 27, 7:00 AM)
Low46 °F (Aug 25, 4:00 AM)33% (Aug 28, 3:00 PM)29.72 "Hg (Aug 18, 10:00 AM)
Average59 °F71%29.95 "Hg
* Reported Aug 16 2:00 AM — Aug 31 2:00 AM, Radebeul, Weather by CustomWeather, © 2014

Note: Actual official high and low records may vary slightly from our data, if they occured in-between our weather recording intervals... More about our weather records

Advertising

Radebeul weather history for previous 24 hours

 ConditionsComfort  
Time TempWeatherWind HumidityBarometerVisibility
2:00 AM
Aug 31
61 °FLight rain. Overcast.2 mph80%30.01 "Hg25 mi
1:00 AM61 °FOvercast.3 mph79%30.01 "Hg25 mi
12:00 AM61 °FOvercast.3 mph78%30.02 "Hg28 mi
10:00 PM
Aug 30
65 °FOvercast.2 mph67%30.02 "Hg25 mi
9:00 PM65 °FOvercast.No wind62%30.02 "Hg25 mi
8:00 PM66 °FPassing clouds.1 mph61%30.01 "Hg22 mi
7:00 PM70 °FPartly sunny.2 mph55%30.00 "Hg22 mi
6:00 PM68 °FLight rain. Overcast.3 mph59%30.01 "Hg25 mi
4:00 PM71 °FPartly sunny.5 mph49%30.01 "Hg25 mi
3:00 PM72 °FPartly sunny.3 mph44%30.02 "Hg22 mi
2:00 PM71 °FPartly sunny.6 mph50%30.02 "Hg22 mi
1:00 PM69 °FOvercast.3 mph65%30.03 "Hg16 mi
12:00 PM67 °FOvercast.3 mph74%30.05 "Hg12 mi
10:00 AM64 °FScattered clouds.1 mph82%30.04 "Hg9 mi
9:00 AM58 °FOvercast.2 mph93%30.05 "Hg6 mi
8:00 AM58 °FOvercast.2 mph94%30.04 "Hg5 mi
7:00 AM57 °FCool.2 mph93%30.04 "HgN/A
6:00 AM57 °FOvercast.2 mph93%30.03 "Hg14 mi
4:00 AM56 °FOvercast.5 mph92%30.02 "Hg12 mi
3:00 AM57 °FPassing clouds.3 mph91%30.03 "Hg12 mi
Weather by CustomWeather, © 2014

See weather overviewHow to use our weather pages